星链-37427(STARLINK-37427)

导读

STARLINK-37427(NORAD编号69381)是美国太空探索技术公司(SpaceX)星链低轨通信星座的成员,大概率属于2025年发射的批次卫星,由猎鹰9号火箭搭载升空,部署于近地轨道,核心功能是提供全球宽带互联网覆盖,面向偏远、网络覆盖不足区域提供高速通信服务。 截至2026年6月,该卫星处于在轨运行状态。受SpaceX2026年星链轨道调整计划影响,它若属于原550公里高度的卫星批次,将被调整至约480公里轨道运行,以降低太空碰撞风险,缩短退役后再入大气层焚毁的时间,当前属于星链全球通信网络的正常运营节点。

基本信息
目录编号:
69381
目录名称:
STARLINK-37427
国际标识:
2026-123AE
轨道中心:
EARTH
卫星名称:
星链-37427
卫星全名:
星链-37427(STARLINK-37427)
卫星状态:
在轨 (已飞行7 天)
发射日期:
2026-06-04 UTC
国别 :
美国 (US)
星等 :
--
轨道信息
数据来源 国际轨道数据
星历时间: 2026-06-11T14:00:02+0800
12小时前
查看轨道信息
半长轴: 6651.665km
偏心率: 0.000077
轨道倾角: 53.156°
近地点辐角 68.499°
升交点赤经 271.235°
平近点角 204.194°
近地点: 273.015km
远地点: 274.041km
周期: 89.982分钟
每日圈数: 16.003215
详细信息
固有亮度:
5
最大亮度:
2.5
卫星平台:
Starlink V1.0
覆盖范围:
全球
运营商:
太空探索技术公司
运营商所在国:
美国
制造商(研发单位):
太空探索技术公司
制造商所在国:
美国
使用方式:
暂无
卫星简介
Starlink 计划是 SpaceX 推出的全球卫星互联网项目,通过发射低轨道卫星,为全球尤其是偏远地区提供高速、低延迟的互联网服务。自 2019 年起,Starlink 已部署数千颗卫星,旨在缩小全球数字鸿沟,推动互联网普及。该项目还为军事、航空等行业提供通信支持,带来广泛经济效益。
2D轨道图
3D轨道图
轨道高度分析图
轨道倾角分析图
轨道综合分析图
查看轨道综合分析图